Regional Weather Roundup
Issued by NWS

Home | Current Version | Previous Version | Graphics & Text | Print | Product List | Glossary On
Versions: 1 2 3 4 5 6 7 8 9 10 11 12 13 14 15 16 17 18 19 20 21 22 23 24 25 26 27
000
ASUS45 KBOU 281307
RWRCO

WEATHER ROUNDUP FOR COLORADO
NATIONAL WEATHER SERVICE DENVER/BOULDER CO
700 AM MDT SAT MAY 28 2016

NOTE: "FAIR" INDICATES FEW OR NO CLOUDS BELOW 12000 FEET WITH NO
SIGNIFICANT WEATHER AND/OR OBSTRUCTIONS TO VISIBILITY.

COZ001>005-013-030-031-281400-
...NORTHWEST COLORADO...

CITY           SKY/WX    TMP DP  RH WIND       PRES   REMARKS
CRAIG          FAIR      40  37  89 CALM      30.10R
HAYDEN         FAIR      41  34  75 E10       30.10R
MEEKER         PTSUNNY   38  34  85 E6        30.11R
MOUNT WERNER   NOT AVBL
STEAMBOAT SPGS FAIR      37  35  92 CALM      30.12R
WALDEN         FAIR      36  32  87 CALM      30.14R
$$

COZ006>008-011-281400-
...WEST CENTRAL VALLEYS...

CITY           SKY/WX    TMP DP  RH WIND       PRES   REMARKS
GRAND JUNCTION FAIR      47  41  80 SE5       30.06R
MONTROSE       FAIR      45  33  63 SE9       30.12R
EAGLE          SUNNY     34  32  93 CALM      30.18R
RIFLE          FAIR      40  34  79 CALM      30.12R
DELTA          FAIR      48  37  66 E8        30.10R
NUCLA          FAIR      45  32  61 SE8       30.13R
$$

COZ017>023-064>068-281400-
...SOUTHWEST COLORADO...

CITY           SKY/WX    TMP DP  RH WIND       PRES   REMARKS
DURANGO        FAIR      36  30  79 N5        30.13R
CORTEZ         FAIR      40  31  70 NE3       30.10R
PAGOSA SPRINGS FAIR      36  35  94 CALM      30.17R
TELLURIDE      FAIR      37  30  77 CALM      30.22R
WOLF CREEK PAS FAIR      32  21  64 SW17      30.32R WCI  21
$$

COZ009-010-012-014-032>034-037-058>063-281400-
...CENTRAL COLORADO...

CITY           SKY/WX    TMP DP  RH WIND       PRES   REMARKS
ASPEN          FAIR      35  30  82 S3        30.16R
BUENA VISTA    FAIR      35  29  79 E3        30.16R
COPPER MTN     NOT AVBL
BERTHOUD PASS  FAIR      23  14  68 NW17      30.25R WCI   9
COTTONWOOD PAS FAIR      39  28  65 SW5       30.21R
GUNNISON       FAIR      32  28  86 CALM      30.22R
KREMMLING      PTSUNNY   34  32  93 CALM      30.17R
LEADVILLE      PTSUNNY   29  27  92 CALM      30.20R
MONARCH PASS   FOG       28  27  93 W21       30.37R VSB 1/2 WCI  15
SALIDA         FAIR      40  32  75 N6        30.22R
SUNLIGHT       FAIR      34  32  93 CALM      30.28R
WILKERSON PASS FAIR      32  23  69 NW8       30.26R WCI  25
$$

COZ069>075-281400-
...SAN LUIS VALLEY/SANGRE DE CRISTO MOUNTAINS...

CITY           SKY/WX    TMP DP  RH WIND       PRES   REMARKS
ALAMOSA        FAIR      35  34  96 CALM      30.16R
LA VETA PASS   FAIR      32  32 100 S7        30.21R WCI  26
SAGUACHE       NOT AVBL
$$

COZ035-036-038>040-281400-
...NORTHERN COLORADO FRONT RANGE...

CITY           SKY/WX    TMP DP  RH WIND       PRES   REMARKS
DENVER INTL AP FAIR      48  39  71 SW10      30.01R
DMNS CITY PARK   N/A     49  37  64 SE7       30.03R
AURORA         MOSUNNY   45  40  81 S8        30.04R
FRONT RANGE AP MOSUNNY   48  37  66 SW8       30.02
ERIE MUNI ARPT FAIR      41  39  93 CALM      30.01R
BOULDER MUN AP PTSUNNY   46  41  81 CALM      30.01R
CENTENNIAL     FAIR      48  39  71 SE3       30.04R
BROOMFIELD     MOSUNNY   46  37  71 CALM      30.02R
FORT COLLINS   FAIR      48  45  87 CALM      30.00S
LONGMONT       FAIR      45  41  87 W3        30.02R FOG
$$

COZ041-046-047-076>085-087-088-281400-
...PIKES PEAK/PALMER DIVIDE AND SOUTHERN FOOTHILLS...

CITY           SKY/WX    TMP DP  RH WIND       PRES   REMARKS
COLO. SPRINGS  FAIR      47  36  65 W3        30.07R
A. F. ACADEMY  FAIR      41  34  75 NW5       30.07R
SCHRIEVER AFB  NOT AVBL
ELLICOTT       FAIR     N/A N/A N/A CALM      30.04R
FALCON         FAIR      49  33  55 NW6       30.09R
FORT CARSON    FAIR      49  37  64 N7        30.04R
LIMON          FAIR      44  40  85 NW5       30.02R
MONUMENT HILL  FAIR      43  36  75 W7        30.10R
TRINIDAD       FAIR      47  38  71 SW12      30.05R
$$

COZ042>045-048>051-090-091-281400-
...NORTHEAST COLORADO...

CITY           SKY/WX    TMP DP  RH WIND       PRES   REMARKS
GREELEY ARPT   PTSUNNY   46  43  87 CALM      30.00R
AKRON          FAIR      47  44  90 W12       29.98R
BURLINGTON     FAIR      48  43  82 W8        29.97R
WRAY           NOT AVBL
STERLING       FAIR      45  43  93 S5        29.95R
HOLYOKE        FAIR      54  46  76 W7        29.94R
FORT MORGAN    FAIR      46  44  92 W7        29.98R
$$

COZ086-089-092>099-281400-
...SOUTHEAST COLORADO...

CITY           SKY/WX    TMP DP  RH WIND       PRES   REMARKS
PUEBLO         FAIR      48  42  80 SW3       30.02R
LA JUNTA       FAIR      50  44  80 SW8       30.01R
LAMAR          FAIR      47  45  93 SW6       29.98R
SPRINGFIELD      N/A     51  44  77 W8        30.01R
$$




USA.gov is the U.S. government's official web portal to all federal, state and local government web resources and services.